www.pogodaiklimat.ru

Погода и климат >> Архив погоды >> Аргентина >> Las Flores


ПОГОДА в Las Flores

  • Прогноз погоды в Las Flores
  • Монитор погоды в Las Flores
  • Климат города

АРХИВ ПОГОДЫ в Las Flores

Время (UTC), дата Ветер
(напр.,м/с)
 
Видим.   Явления Облачность Т
(С)
Тd
(С)
f
(%)
Тe
(С)
Тes
(С)
Комфортность P
(гПа)
Po
(гПа)
Тmin
(С)
Tmax
(С)
R
(мм)
R24
(мм)
S
(см)
18 9.08 В 4 15 км 10/10 750 м
[Frnb]
+14.0 +8.9 71 +13 +13 1020.2 1015.7
00 11.08 СВ 5 15 км {дождь} 10/10 750 м
[Frnb]
+13.4 +11.0 85 +11 +11 1014.9 1010.5 +11.6 +15.8 0.8
09 11.08 В 2 6000 м дождь {морось} 10/10 750 м
[Sc]
+13.4 +12.3 93 +13 +13 1013.3 1008.9
12 11.08 СВ 8 15 км {дождь} 10/10 750 м
[Frnb]
+14.1 +11.7 85 +12 +12 1008.5 1004.1 +13.4 +14.2 16
15 11.08 СВ 2 6000 м дождь 10/10 750 м
[Sc]
+16.1 +13.8 86 +16 +16 1008.5 1004.2
18 11.08 В 4 6000 м дождь {морось} 10/10 750 м
[Frnb]
+14.0 +11.8 87 +12 +12 1006.2 1002.0 19
21 11.08 В 2 15 км {дождь} 10/10 750 м
[Frnb]
+14.0 +12.5 91 +13 +13 1004.4 1000.1
09 12.08 В 1 6000 м слабая морось 10/10 750 м
[St]
+12.8 +11.3 91 +13 +13 1007.7 1003.3
12 12.08 В 6 15 км {морось} 10/10 750 м
[Frnb]
+11.8 +8.2 79 +9 +9 1011.1 1006.8 +11.0 +13.9 4
15 12.08 ЮВ 8 15 км 6/4 750 м
[Sc diur, vesp Ci]
+13.7 +7.2 65 +11 +12 1011.3 1007.0
18 12.08 ЮВ 9 500 м 6/4 750 м
[Sc diur, vesp Ci]
+14.5 +7.5 63 +12 +13 1010.1 1005.8
21 12.08 Ю 6 15 км 5/0
[Ci]
+13.0 +7.1 67 +11 +11 1011.3 1006.9
00 13.08 Ю 2 15 км 5/0
[Ci]
+12.5 +9.0 79 +12 +12 1013.4 1009.0 +11.8 +15.6
09 13.08 штиль 0 15 км ясно +6.8 +4.5 85 +6 +6 1014.5 1010.1
12 13.08 штиль 0 15 км ясно +9.0 +4.8 75 +8 +10 1015.0 1010.6 +5.0 +12.5
15 13.08 штиль 0 15 км ясно +12.7 +7.4 70 +12 +24 опасность
простуды
1014.4 1010.0
18 13.08 З 2 15 км 4/0
[Cs]
+15.4 +4.3 47 +15 +21 1011.9 1007.6
21 13.08 штиль 0 15 км 4/0
[Cs]
+13.7 +4.2 53 +14 +14 1009.9 1005.6
00 14.08 штиль 0 15 км 10/10 750 м
[Frnb]
+12.1 +4.7 61 +12 +12 1009.2 1004.9 +9.0 +16.1
09 14.08 З 1 15 км ясно +8.7 +4.9 77 +8 +8 1010.4 1006.1
12 14.08 Ю 3 15 км ясно +9.8 +4.5 70 +8 +9 1012.6 1008.2 +8.5 +12.2
15 14.08 Ю 6 15 км ясно +14.0 +5.6 57 +12 +15 1014.2 1009.8
18 14.08 Ю 4 15 км ясно +16.0 +2.9 41 +15 +20 1013.1 1008.8
21 14.08 ЮЗ 1 15 км 9/9 750 м
[Frnb]
+14.1 +5.0 54 +15 +15 1012.6 1008.2
09 15.08 штиль 0 15 км ясно +9.2 +4.5 72 +9 +9 1016.4 1012.1
12 15.08 З 1 15 км 9/9 750 м
[Sc diur, vesp]
+10.9 +5.0 67 +11 +11 1016.7 1012.4 +6.7 +12.5
15 15.08 З 1 15 км 9/9 750 м
[Sc diur, vesp]
+13.4 +7.1 66 +14 +15 1016.9 1012.5
18 15.08 В 3 15 км 10/10 750 м
[Frnb]
+12.5 +6.9 69 +11 +11 1015.4 1011.0
21 15.08 В 2 15 км 9/9 750 м
[Frnb]
+11.5 +7.6 77 +10 +10 1016.8 1012.4
09 16.08 штиль 0 15 км ясно +4.8 +2.6 86 +4 +4 1021.6 1017.2
12 16.08 Ю 3 15 км ясно +7.0 +4.7 85 +4 +5 1023.9 1019.4 +4.0 +11.3
15 16.08 Ю 2 15 км ясно +12.0 +4.9 62 +11 +20 1024.3 1019.8

 

Местоположение метеостанции Las Flores (Аргентина): широта -36.07 долгота -59.10 высота над уровнем моря 38 м.

В архиве по умолчанию представлена погода в Las Flores за последнюю неделю. Архивные данные за месяц целиком и за предыдущие месяцы, начиная с января 2011 года, Вы можете получить, выбрав интересующий диапазон дат из раскрывающегося списка и нажав кнопку "Ввод!".

Внимание! Время в таблицах - всемирное. Для получения местного времени необходимо прибавить поправку, которая в Las Flores равна -3 ч.

Смотрите также архив погоды в соседних городах и на ближайших метеорологических станциях:

Погода в Azul (Аргентина) (110 км)
Погода в Dolores (Аргентина) (127 км)
Погода в Tandil (Аргентина) (130 км)
Погода в Ezeiza (Аргентина) (149 км)
Погода в La Plata (Аргентина) (164 км)
Погода в Buenos Aires (Аргентина) (175 км)
Погода в Bolivar (Аргентина) (178 км)
Погода в Buenos Aires Aeropuerto (Аргентина) (179 км)
Погода в Colonia (Уругвай) (214 км)
Погода в Junin (Аргентина) (236 км)

Пояснения к столбцам:

Ветер - указаны скорость ветра в м/с - средняя за 10 мин, порывы в срок и между сроками (в фигурных скобках) и направление, откуда дует ветер: С - северный, СВ - северо-восточный, В - восточный, ЮВ - юго-восточный, Ю - южный, ЮЗ - юго-западный, З - западный, СЗ - северо-западный.
Видимость - горизонтальная дальность видимости в метрах или километрах. При видимости от 1 до 10 км при отсутствии осадков обычно наблюдается дымка, при ухудшении видимости до 1 км и менее - туман. В сухую погоду видимость может ухудшаться дымом, пылью или мглою.
Явления - указаны атмосферные явления, наблюдавшиеся в срок или в последний час перед сроком; фигурными скобками обозначены явления, наблюдавшиеся между сроками (за 1-3 часа до срока); квадратными скобками обозначены град или гололедные отложения с указанием их диаметра в мм.
Облачность - указаны через наклонную черту общая и нижняя облачность в баллах и высота нижней границы облаков в метрах; квадратными скобками обозначены формы облаков: Ci - перистые, Cs - перисто-слоистые, Cc - перисто-кучевые, Ac - высококучевые, As - высокослоистые, Sc - слоисто-кучевые, Ns - слоисто-дождевые, Cu - кучевые, Cb - кучево-дождевые. Подробнее классификацию облаков см. в Атласе облаков (PDF).
T - Температура воздуха - температура, измеренная на высоте 2 м над землей.
Td - Температура точки росы - температура, при понижении до которой содержащийся в воздухе водяной пар достигнет насыщения.
f - Относительная влажность воздуха - влажноcть воздуха, измеренная на высоте 2 м над землей.
Te - Эффективная температура - температура, которую ощущает одетый по сезону человек в тени. Характеристика душности погоды. При расчете учитывается влияние влажности воздуха и скорости ветра на теплоощущения человека.
Tes - Эффективная температура на солнце - температура, которую ощущает человек, с поправкой на солнечный нагрев. Характеристика знойности погоды. Зависит от высоты солнца над горизонтом, облачности и скорости ветра. Ночью, в пасмурную погоду, а также при ветре 12 м/с и более поправка равна нулю.
P - Атмосферное давление - приведенное к уровню моря атмосферное давление.
Po - Атмосферное давление - измеренное на уровне метеостанции атмосферное давление.
Tmin - Минимальная температура - минимум температуры воздуха на высоте 2 м над землей.
Tmax - Максимальная температура - максимум температуры воздуха на высоте 2 м над землей.
R - Количество осадков - Количество выпавших осадков за период времени, мм. При наведении курсора мыши на число - период времени, за который выпало указанное количество осадков.
R24 - Количество осадков - Количество выпавших осадков за 24 часа, мм.
S - Снежный покров - Высота снежного покрова, см. При наведении курсора мыши на число - состояние снежного покрова и степень покрытия местности в баллах.